This is the latest recevied weather packets stored in our database for station/object KE8GJZ-1. If no packets are shown the sender has not sent any weather packets the latest 1 day(s).
| Time | Temp. | Humidity | Pressure | Rain* | Wind** | Luminosity | Snow |
|---|---|---|---|---|---|---|---|
| 1778032402 | 8.89° C | 59% | 1006.8 hPa | 0 mm | - | 0 W/m² | - |
| 1778032098 | 8.89° C | 60% | 1006.9 hPa | 0 mm | - | 0 W/m² | - |
| 1778031795 | 8.89° C | 59% | 1006.7 hPa | 0 mm | - | 0 W/m² | - |
| 1778031492 | 9.44° C | 59% | 1006.8 hPa | 0 mm | - | 0 W/m² | - |
| 1778031189 | 9.44° C | 58% | 1006.5 hPa | 0 mm | - | 0 W/m² | - |
| 1778030886 | 9.44° C | 59% | 1006.7 hPa | 0 mm | - | 0 W/m² | - |
| 1778030583 | 9.44° C | 60% | 1006.7 hPa | 0 mm | - | 0 W/m² | - |
| 1778030280 | 9.44° C | 60% | 1006.5 hPa | 0 mm | - | 0 W/m² | - |
| 1778029976 | 9.44° C | 60% | 1006.3 hPa | 0 mm | - | 0 W/m² | - |
| 1778029674 | 9.44° C | 56% | 1005.9 hPa | 0 mm | - | 0 W/m² | - |
| 1778029372 | 9.44° C | 57% | 1006.3 hPa | 0 mm | - | 0 W/m² | - |
| 1778029069 | 9.44° C | 56% | 1006.4 hPa | 0 mm | - | 0 W/m² | - |
| 1778028461 | 10° C | 54% | 1006.5 hPa | 0 mm | - | 0 W/m² | - |
| 1778027855 | 10° C | 55% | 1006.7 hPa | 0 mm | - | 0 W/m² | - |
| 1778026944 | 10° C | 51% | 1006.5 hPa | 0 mm | - | 0 W/m² | - |
| 1778026640 | 10° C | 53% | 1006.5 hPa | 0 mm | - | 1 W/m² | - |
| 1778025127 | 10.56° C | 51% | 1006.3 hPa | 0 mm | - | 6 W/m² | - |
| 1778024217 | 10.56° C | 51% | 1006 hPa | 0 mm | - | 19 W/m² | - |
| 1778023310 | 11.11° C | 48% | 1006 hPa | 0 mm | - | 34 W/m² | - |
| 1778023006 | 11.11° C | 50% | 1006 hPa | 0 mm | - | 33 W/m² | - |
| 1778019369 | 11.67° C | 51% | 1005.9 hPa | 0 mm | - | 70 W/m² | - |
| 1778018461 | 12.22° C | 50% | 1005.9 hPa | 0 mm | - | 78 W/m² | - |
| 1778017856 | 12.22° C | 51% | 1005.9 hPa | 0 mm | - | 95 W/m² | - |
| 1778016341 | 12.22° C | 51% | 1006 hPa | 0 mm | - | 83 W/m² | - |
| 1778014524 | 12.22° C | 53% | 1005.9 hPa | 0 mm | - | 103 W/m² | - |
* Rain latest hour (hover to see other rain measurements)
** Current wind speed in m/s (hover to see current wind gust speed)